{"data":{"norad_id":48992,"intl_designator":"2021-060AB","name":"ONEWEB-0274","alt_names":[],"object_type":"PAYLOAD","status":"ACTIVE","operator":null,"country":"UK","launch_date":"2021-07-01","launch_site_code":"VOSTO","launch_vehicle":null,"mission":null,"orbit_class":"UNKNOWN","rcs_meters":null,"size_class":null,"mass_kg":null,"dimensions":null,"purposes":["comms"],"wikipedia_slug":null,"has_3d_model":false,"image_url":null,"decayed_at":null,"tle_current":{"epoch":"2026-09-20T03:51:25.948800Z","epoch_age_seconds":51194,"freshness":"FRESH","line1":"1 48992U 21060AB  26263.16071700  .00000101  00000+0  23060-3 0  9997","line2":"2 48992  87.9150 209.9231 0002315  76.5427 283.5961 13.16594822252129","mean_motion":13.16594822,"eccentricity":0.0002315,"inclination_deg":87.915,"raan_deg":209.9231,"arg_perigee_deg":76.5427,"mean_anomaly_deg":283.5961,"bstar":0.0002306,"rev_number":25212,"period_min":109.37305661073,"perigee_km":1196.0006808123,"apogee_km":1199.5083185767,"semimajor_km":7575.8914996945,"source":"CELESTRAK","updated_at":"2026-09-20T09:00:44.628062Z"}}}